User: anonymous   Login
Location: Beang
(6.6177°N, 10.9863°W)
Time: 17:43:52
(UTC+00:00)
Language:

Cosmos 2219 Rocket - Orbit

View from above orbital plane
View from above orbital plane
View from above satellite
View from above satellite

Ground track
Ground track

The orbit data is extracted from the following two-line orbital elements,

1 22220U 92076B   20227.90372087  .00000212  00000-0  13047-3 0  9994
2 22220  71.0010 148.5439 0014582 307.4722 114.8649 14.16457946434289
Epoch (UTC): 14 August 2020 21:41:21
Eccentricity: 0.0014582
inclination: 71.0010°
perigee height: 827 km
apogee height: 848 km
right ascension of ascending node: 148.5439°
argument of perigee: 307.4722°
revolutions per day: 14.16457946
mean anomaly at epoch: 114.8649°
orbit number at epoch: 43428

The dashed part of the orbit path shows where the satellite is in the earth's shadow,  

DLR